Find S-NET A

NORAD ID: 43188 Int'l Des: 2018-014 Owner: TUB Country: D operational
LEOCIRCULARRETROGRADESSO

当前视图

正在加载3D地球...

About S-NET A

S-NET A (NORAD 43188) is a satellite launched Feb 1, 2018 by TUB of D. It operates in LEO, CIRCULAR, RETROGRADE, SSO orbit with a mass of 8.00 kg.

即将过境

Passes for default location (London). Set your location on the main map for personalized predictions.

高度历史

Loading altitude history...

两行轨道根数

1 43188U 18014J 26195.17852839 .00002530 00000-0 13176-3 0 9995
2 43188 97.5351 100.0034 0006794 284.3753 75.6726 15.16920829462853
Epoch: Jul 14, 2026 • Age: 13 hours

当前状态

高度 531.7 km
远地点 / 近地点 N/A
速度 7.60 km/s
星下点 72.00°N, 115.02°W
发射日期 Feb 1, 2018
运行时间 8.4 years
类型 other

技术详情

分类 Payload
质量 8.00 kg
干质量 8.00 kg
总质量 8.00 kg
长度 0.24 m
直径 0.24 m
跨度 0.24 m
形状 Box
制造商 TUB
平台类型 TUBiX10
阶段状态 In Orbit
所有者/国家 TUB/D

Most Searched